TimeEDT,TemperatureF,Dew PointF,Humidity,Sea Level PressureIn,VisibilityMPH,Wind Direction,Wind SpeedMPH,Gust SpeedMPH,PrecipitationIn,Events,Conditions,WindDirDegrees,DateUTC
12:15 AM,41.0,35.6,81,29.84,10.0,Calm,Calm,-,N/A,,Clear,0,2013-03-21 04:15:00
12:35 AM,39.2,35.6,87,29.83,10.0,Calm,Calm,-,N/A,,Clear,0,2013-03-21 04:35:00
12:55 AM,39.2,35.6,87,29.83,10.0,Calm,Calm,-,N/A,,Clear,0,2013-03-21 04:55:00
1:15 AM,39.2,35.6,87,29.83,10.0,Calm,Calm,-,N/A,,Clear,0,2013-03-21 05:15:00
1:35 AM,39.2,35.6,87,29.82,10.0,Calm,Calm,-,N/A,,Clear,0,2013-03-21 05:35:00
1:55 AM,39.2,35.6,87,29.82,10.0,Calm,Calm,-,N/A,,Clear,0,2013-03-21 05:55:00
2:15 AM,39.2,35.6,87,29.81,10.0,WSW,3.5,-,N/A,,Clear,240,2013-03-21 06:15:00
2:35 AM,42.8,35.6,76,29.81,10.0,WSW,3.5,-,N/A,,Clear,240,2013-03-21 06:35:00
2:55 AM,42.8,33.8,70,29.81,10.0,WSW,3.5,-,N/A,,Clear,250,2013-03-21 06:55:00
3:15 AM,44.6,32.0,61,29.80,10.0,West,4.6,-,N/A,,Clear,260,2013-03-21 07:15:00
3:35 AM,44.6,32.0,61,29.80,10.0,Calm,Calm,-,N/A,,Clear,0,2013-03-21 07:35:00
4:15 AM,46.4,28.4,50,29.80,10.0,WNW,3.5,-,N/A,,Clear,300,2013-03-21 08:15:00
4:35 AM,44.6,28.4,53,29.81,10.0,WNW,3.5,-,N/A,,Clear,290,2013-03-21 08:35:00
4:55 AM,44.6,28.4,53,29.81,10.0,WNW,4.6,-,N/A,,Clear,300,2013-03-21 08:55:00
5:15 AM,44.6,28.4,53,29.81,10.0,Calm,Calm,-,N/A,,Clear,0,2013-03-21 09:15:00
5:35 AM,42.8,28.4,57,29.82,10.0,Calm,Calm,-,N/A,,Clear,0,2013-03-21 09:35:00
5:55 AM,42.8,28.4,57,29.83,10.0,Calm,Calm,-,N/A,,Clear,0,2013-03-21 09:55:00
6:15 AM,42.8,28.4,57,29.83,10.0,Calm,Calm,-,N/A,,Clear,0,2013-03-21 10:15:00
6:35 AM,41.0,28.4,61,29.83,10.0,Calm,Calm,-,N/A,,Clear,0,2013-03-21 10:35:00
7:15 AM,41.0,28.4,61,29.85,10.0,Calm,Calm,-,N/A,,Clear,0,2013-03-21 11:15:00
7:35 AM,39.2,28.4,65,29.86,10.0,Calm,Calm,-,N/A,,Clear,0,2013-03-21 11:35:00
7:55 AM,39.2,28.4,65,29.86,10.0,Calm,Calm,-,N/A,,Clear,0,2013-03-21 11:55:00
8:15 AM,39.2,30.2,70,29.86,10.0,Calm,Calm,-,N/A,,Clear,0,2013-03-21 12:15:00
8:35 AM,41.0,30.2,65,29.87,10.0,Calm,Calm,-,N/A,,Clear,0,2013-03-21 12:35:00
8:55 AM,42.8,30.2,61,29.87,10.0,Calm,Calm,-,N/A,,Clear,0,2013-03-21 12:55:00
9:15 AM,44.6,30.2,57,29.87,10.0,Calm,Calm,-,N/A,,Clear,0,2013-03-21 13:15:00
9:35 AM,44.6,28.4,53,29.87,10.0,WNW,5.8,-,N/A,,Clear,300,2013-03-21 13:35:00
9:55 AM,46.4,26.6,46,29.87,10.0,NNW,6.9,-,N/A,,Clear,330,2013-03-21 13:55:00
10:15 AM,46.4,28.4,50,29.87,10.0,NNW,3.5,-,N/A,,Clear,330,2013-03-21 14:15:00
10:35 AM,48.2,24.8,40,29.86,10.0,NW,5.8,-,N/A,,Clear,310,2013-03-21 14:35:00
10:55 AM,48.2,24.8,40,29.87,10.0,NW,10.4,-,N/A,,Clear,320,2013-03-21 14:55:00
11:15 AM,48.2,23.0,37,29.86,10.0,NNW,5.8,-,N/A,,Clear,330,2013-03-21 15:15:00
11:35 AM,48.2,24.8,40,29.86,10.0,WNW,5.8,-,N/A,,Clear,300,2013-03-21 15:35:00
12:15 PM,51.8,24.8,35,29.86,10.0,NW,6.9,-,N/A,,Clear,310,2013-03-21 16:15:00
12:35 PM,51.8,24.8,35,29.86,10.0,WNW,4.6,-,N/A,,Clear,290,2013-03-21 16:35:00
12:55 PM,51.8,23.0,33,29.86,10.0,WNW,5.8,-,N/A,,Clear,290,2013-03-21 16:55:00
1:15 PM,53.6,23.0,30,29.85,10.0,NW,6.9,-,N/A,,Clear,310,2013-03-21 17:15:00
1:35 PM,53.6,23.0,30,29.85,10.0,NNW,9.2,-,N/A,,Clear,330,2013-03-21 17:35:00
2:15 PM,55.4,23.0,29,29.83,10.0,West,8.1,-,N/A,,Clear,270,2013-03-21 18:15:00
2:35 PM,55.4,21.2,26,29.82,7.0,NW,8.1,-,N/A,,Clear,310,2013-03-21 18:35:00
3:15 PM,57.2,21.2,25,29.82,7.0,NW,6.9,-,N/A,,Clear,310,2013-03-21 19:15:00
3:35 PM,57.2,19.4,23,29.82,7.0,West,8.1,16.1,N/A,,Clear,260,2013-03-21 19:35:00
3:55 PM,57.2,17.6,21,29.81,10.0,WNW,4.6,18.4,N/A,,Clear,300,2013-03-21 19:55:00
4:15 PM,59.0,17.6,20,29.81,7.0,West,8.1,-,N/A,,Clear,280,2013-03-21 20:15:00
4:35 PM,59.0,17.6,20,29.80,7.0,NNW,4.6,-,N/A,,Clear,340,2013-03-21 20:35:00
4:55 PM,57.2,15.8,20,29.80,7.0,West,4.6,17.3,N/A,,Clear,270,2013-03-21 20:55:00
5:15 PM,59.0,15.8,19,29.80,7.0,NW,9.2,-,N/A,,Clear,320,2013-03-21 21:15:00
5:35 PM,59.0,14.0,17,29.80,10.0,NW,5.8,-,N/A,,Clear,320,2013-03-21 21:35:00
5:55 PM,59.0,15.8,19,29.80,10.0,NW,6.9,-,N/A,,Clear,310,2013-03-21 21:55:00
6:15 PM,57.2,14.0,18,29.81,10.0,WNW,6.9,-,N/A,,Clear,300,2013-03-21 22:15:00
6:35 PM,57.2,14.0,18,29.82,7.0,NW,6.9,16.1,N/A,,Clear,310,2013-03-21 22:35:00
6:55 PM,57.2,12.2,17,29.83,10.0,West,6.9,-,N/A,,Clear,280,2013-03-21 22:55:00
7:15 PM,55.4,12.2,18,29.84,7.0,NW,4.6,-,N/A,,Clear,320,2013-03-21 23:15:00
7:35 PM,53.6,12.2,19,29.85,5.0,WNW,4.6,-,N/A,,Haze,300,2013-03-21 23:35:00
7:55 PM,51.8,14.0,22,29.86,10.0,NW,3.5,-,N/A,,Clear,310,2013-03-21 23:55:00
8:15 PM,51.8,14.0,22,29.87,7.0,Calm,Calm,-,N/A,,Clear,0,2013-03-22 00:15:00
8:35 PM,50.0,15.8,26,29.87,10.0,Calm,Calm,-,N/A,,Clear,0,2013-03-22 00:35:00
8:55 PM,50.0,15.8,26,29.89,10.0,NW,3.5,-,N/A,,Clear,310,2013-03-22 00:55:00
9:15 PM,48.2,15.8,27,29.89,10.0,Calm,Calm,-,N/A,,Clear,0,2013-03-22 01:15:00
9:35 PM,46.4,15.8,29,29.90,10.0,Calm,Calm,-,N/A,,Clear,0,2013-03-22 01:35:00
10:15 PM,42.8,21.2,42,29.91,10.0,Calm,Calm,-,N/A,,Clear,0,2013-03-22 02:15:00
10:35 PM,41.0,24.8,53,29.92,10.0,Calm,Calm,-,N/A,,Clear,0,2013-03-22 02:35:00
10:55 PM,41.0,26.6,57,29.93,10.0,Calm,Calm,-,N/A,,Clear,0,2013-03-22 02:55:00
11:15 PM,39.2,26.6,61,29.93,10.0,Calm,Calm,-,N/A,,Clear,0,2013-03-22 03:15:00
11:35 PM,37.4,26.6,65,29.93,10.0,Calm,Calm,-,N/A,,Clear,0,2013-03-22 03:35:00
11:55 PM,39.2,26.6,61,29.95,10.0,Calm,Calm,-,N/A,,Clear,0,2013-03-22 03:55:00